This is the latest recevied weather packets stored in our database for station/object 9W2SHB-13. If no packets are shown the sender has not sent any weather packets the latest 1 day(s).
| Time | Temp. | Humidity | Pressure | Rain* | Wind** | Luminosity | Snow |
|---|---|---|---|---|---|---|---|
| 1778039107 | 31.11° C | 65% | 1028.8 hPa | - | 0 m/s | - | - |
| 1778038207 | 30.56° C | 65% | 1028.9 hPa | - | 0 m/s | - | - |
| 1778037307 | 30.56° C | 64% | 1029.1 hPa | - | 0 m/s | - | - |
| 1778036407 | 30.56° C | 67% | 1029.2 hPa | - | 0 m/s | - | - |
| 1778035507 | 30.56° C | 68% | 1029.3 hPa | - | 0 m/s | - | - |
| 1778034607 | 30° C | 69% | 1029.3 hPa | - | 0 m/s | - | - |
| 1778033706 | 30° C | 70% | 1029.3 hPa | - | 0 m/s | - | - |
| 1778032807 | 30° C | 70% | 1029.2 hPa | - | 0 m/s | - | - |
| 1778031907 | 30° C | 69% | 1029.4 hPa | - | 0 m/s | - | - |
| 1778031007 | 30° C | 69% | 1029.2 hPa | - | 0 m/s | - | - |
| 1778030107 | 30.56° C | 67% | 1029 hPa | - | 0 m/s | - | - |
| 1778029206 | 30° C | 68% | 1028.9 hPa | - | 0 m/s | - | - |
| 1778028307 | 30° C | 68% | 1028.6 hPa | - | 0 m/s | - | - |
| 1778027407 | 30° C | 68% | 1028.2 hPa | - | 0 m/s | - | - |
| 1778026506 | 30° C | 68% | 1028.1 hPa | - | 0 m/s | - | - |
| 1778025606 | 30° C | 67% | 1028 hPa | - | 0 m/s | - | - |
| 1778024707 | 30° C | 67% | 1027.9 hPa | - | 0 m/s | - | - |
| 1778023806 | 30° C | 68% | 1027.7 hPa | - | 0 m/s | - | - |
| 1778022907 | 30° C | 67% | 1027.5 hPa | - | 0 m/s | - | - |
| 1778022007 | 30.56° C | 66% | 1027.6 hPa | - | 0 m/s | - | - |
| 1778021107 | 30° C | 66% | 1027.7 hPa | - | 0 m/s | - | - |
| 1778020216 | 30.56° C | 65% | 1027.8 hPa | - | 0 m/s | - | - |
| 1778019306 | 29.44° C | 67% | 1027.8 hPa | - | 0 m/s | - | - |
| 1778018407 | 29.44° C | 67% | 1027.7 hPa | - | 0 m/s | - | - |
| 1778017507 | 30° C | 67% | 1027.6 hPa | - | 0 m/s | - | - |
* Rain since midnight (hover to see other rain measurements)
** Current wind speed in m/s (hover to see current wind gust speed)